[[{"header":{"parameterUnit":"m.s-1","parameterCategory":2,"la1":30.2991,"la2":30.254,"lo1":-89.0895,"lo2":-89.0444,"dy":0.0017,"dx":0.0017,"nx":28,"ny":28,"refTime":"2025-01-25T09:00:00:Z","depth":"0","parameterNumber":2,"parameterNumberName":"U-component_of_CURRENTS"},"data":[0,0,0,0,0,0,0,0,0,0,0,0,0,0,0,0,0,0,0,0,0,0,0,0,0,0,0,0,0,0,0,0,0,0,0,0,0,0,0,0,0,0,0,0,0,0,0,0,0,0,0,0,0,0,0,0,0,0,-0.3155,-0.3156,0,-0.3201,-0.3201,-0.3201,-0.3182,-0.3181,-0.318,-0.318,-0.3155,-0.3155,-0.3155,0,0,0,0,0,0,0,0,0,0,0,0,0,-0.29,-0.2905,-0.3155,-0.3156,-0.3157,-0.3201,-0.3201,-0.3201,-0.3182,-0.3181,-0.318,-0.3179,-0.3155,-0.3155,-0.3155,0,0,0,0,0,0,0,0,0,0,0,0,0,-0.298,-0.2907,-0.3155,-0.3156,-0.3157,-0.3201,-0.3201,-0.3201,-0.3182,-0.3181,-0.318,-0.3179,-0.3155,-0.3155,-0.3155,-0.3173,0,0,-0.3154,-0.3154,0,0,0,0,0,0,0,0,-0.2976,-0.2989,-0.3155,-0.3157,-0.3158,-0.3189,-0.3102,-0.319,-0.3182,-0.3167,-0.318,-0.3179,-0.3164,-0.3163,-0.3167,-0.3172,-0.3171,-0.3154,-0.3154,-0.3154,-0.3154,0,0,0,0,0,0,0,-0.2971,-0.2986,-0.3168,-0.3157,-0.3158,-0.3104,-0.3115,-0.3118,-0.3165,-0.3168,-0.3168,-0.3182,-0.3163,-0.3167,-0.3166,-0.317,-0.3154,-0.3154,-0.3154,-0.3154,-0.3184,-0.3185,0,0,0,0,0,0,-0.2986,-0.2983,-0.3167,-0.317,-0.3069,-0.311,-0.3122,-0.3176,-0.3166,-0.3166,-0.3183,-0.3181,-0.3168,-0.3167,-0.3165,-0.3159,-0.3154,-0.3154,-0.3154,-0.3183,-0.3184,-0.3185,0,0,0,0,0,0,-0.2981,-0.3004,-0.3165,-0.3078,-0.3095,-0.3117,-0.3176,-0.3177,-0.3178,-0.3179,-0.3176,-0.3183,-0.3167,-0.3166,-0.3171,-0.3159,-0.3154,-0.3154,-0.3182,-0.3183,-0.3184,-0.3164,0,0,0,0,0,0,-0.2974,-0.3002,-0.3035,-0.3081,-0.3101,-0.3188,-0.3178,-0.3179,-0.3191,-0.3189,-0.3178,-0.3175,-0.3166,-0.3172,-0.3171,-0.3159,-0.3154,-0.3181,-0.3182,-0.3184,-0.3164,-0.3165,-0.3165,0,0,0,0,0,-0.2965,-0.301,-0.3038,-0.3059,-0.3152,-0.319,-0.3194,-0.32,-0.3192,-0.3195,-0.3192,-0.3175,-0.3181,-0.3173,-0.3172,-0.3159,-0.318,-0.3182,-0.3184,-0.3163,-0.3164,-0.3165,0,0,0,0,0,0,-0.2892,-0.3015,-0.3045,-0.312,-0.3155,-0.3188,-0.3193,-0.3202,-0.3204,-0.3197,-0.3188,-0.3186,-0.3184,-0.3187,-0.3177,-0.3176,-0.3177,-0.3179,-0.3162,-0.3163,-0.3164,-0.311,-0.3154,0,0,0,0,0,-0.2904,-0.2977,-0.306,-0.3107,-0.3137,-0.3166,-0.318,-0.3191,-0.3205,-0.3204,-0.3202,-0.32,-0.3194,-0.319,-0.3191,-0.3194,-0.3158,-0.3188,-0.3189,-0.3189,-0.3148,-0.3092,-0.3082,-0.3191,-0.3191,-0.3191,0,0,-0.2873,-0.2958,-0.2988,-0.3097,-0.3124,-0.3147,-0.317,-0.3196,-0.3191,-0.3202,-0.3191,-0.3203,-0.3198,-0.3196,-0.3195,-0.3193,-0.3149,-0.3192,-0.3191,-0.3149,-0.3093,-0.3081,-0.3071,-0.3192,-0.3192,-0.3192,0,0,-0.2829,-0.2942,-0.2973,-0.3023,-0.3094,-0.3127,-0.3137,-0.3185,-0.3187,-0.3204,-0.3197,-0.3197,-0.3212,-0.3189,-0.3182,-0.319,-0.3156,-0.3208,-0.316,-0.3108,-0.3097,-0.3087,-0.3054,-0.3041,-0.3206,-0.3206,-0.3206,0,-0.2781,-0.286,-0.2971,-0.301,-0.3036,-0.3116,-0.3117,-0.3143,-0.3176,-0.3165,-0.3197,-0.3186,-0.3195,-0.3149,-0.3157,-0.3183,-0.3157,-0.3154,-0.3103,-0.3092,-0.3082,-0.3051,-0.3036,-0.3205,-0.3206,-0.3206,-0.3206,0,-0.2757,-0.2818,-0.2839,-0.2931,-0.2968,-0.2994,-0.3061,-0.3081,-0.3113,-0.3128,-0.3116,-0.3138,-0.312,-0.3139,-0.315,-0.3085,-0.3094,-0.3109,-0.3088,-0.3068,-0.3039,-0.3024,-0.3204,-0.3205,-0.3205,-0.3205,0,0,-0.2658,-0.2793,-0.2799,-0.2831,-0.2938,-0.2966,-0.2975,-0.3,-0.2996,-0.3035,-0.3003,-0.3013,-0.3031,-0.3023,-0.3042,-0.3004,-0.2938,-0.3024,-0.3022,-0.2969,-0.2827,-0.2788,-0.2769,-0.2942,-0.2939,-0.2937,-0.2845,0,-0.2595,-0.2646,-0.2725,-0.2745,-0.2783,-0.2864,-0.2872,-0.2904,-0.2943,-0.2948,-0.2957,-0.2955,-0.2987,-0.2992,-0.2952,-0.2953,-0.2893,-0.2961,-0.2872,-0.2869,-0.2816,-0.2747,-0.2635,-0.2538,-0.283,-0.2827,-0.2826,0,-0.2549,-0.2602,-0.261,-0.2693,-0.2712,-0.2724,-0.2767,-0.2785,-0.2813,-0.2839,-0.2829,-0.286,-0.2822,-0.2864,-0.2787,-0.2833,-0.2803,-0.2797,-0.2794,-0.2738,-0.2799,-0.2602,-0.25,-0.2482,-0.2802,-0.2804,-0.2806,0,-0.2457,-0.2525,-0.2531,-0.2564,-0.2659,-0.2653,-0.269,-0.2734,-0.2751,-0.2764,-0.278,-0.2749,-0.2754,-0.27,-0.2716,-0.2739,-0.2635,-0.2672,-0.2591,-0.259,-0.2461,-0.2453,-0.2298,-0.2555,-0.2555,-0.2556,-0.2556,0,-0.2401,-0.2409,-0.2493,-0.2511,-0.2511,-0.2593,-0.2592,-0.2627,-0.2666,-0.2673,-0.2715,-0.2709,-0.271,-0.2682,-0.2667,-0.2586,-0.2589,-0.2535,-0.2538,-0.2459,-0.2452,-0.2406,-0.2445,-0.2552,-0.2553,-0.2554,-0.2554,0,-0.2313,-0.237,-0.2393,-0.2464,-0.248,-0.2484,-0.2551,-0.2553,-0.2608,-0.2614,-0.2616,-0.266,-0.2622,-0.2618,-0.2554,-0.2526,-0.241,-0.2423,-0.2344,-0.2337,-0.2234,-0.2277,-0.2115,-0.2057,-0.2289,-0.2287,-0.2286,0,-0.2272,-0.2276,-0.2343,-0.2348,-0.2377,-0.2404,-0.2419,-0.2502,-0.2517,-0.258,-0.2568,-0.256,-0.2528,-0.2444,-0.2383,-0.2298,-0.2314,-0.2157,-0.2157,-0.2161,-0.2213,-0.2256,-0.2222,-0.1999,-0.1995,-0.1992,-0.1989,0,-0.2183,-0.2208,-0.2228,-0.2246,-0.2261,-0.2283,-0.2317,-0.2328,-0.2416,-0.2426,-0.2429,-0.2409,-0.2355,-0.223,-0.2154,-0.2097,-0.21,-0.2088,-0.2085,-0.1938,-0.1974,-0.1943,-0.2166,-0.1961,-0.1964,-0.1966,-0.1967,-0.1969,-0.2097,-0.2089,-0.2114,-0.2114,-0.2134,-0.2132,-0.2104,-0.2157,-0.216,-0.2154,-0.2234,-0.2172,-0.2118,-0.1986,-0.1931,-0.1805,-0.1883,-0.1748,-0.1793,-0.1831,-0.1772,-0.1942,-0.1756,-0.1758,-0.1759,-0.176,-0.1761,0,-0.1976,-0.1976,-0.1977,-0.1974,-0.1937,-0.1995,-0.2002,-0.1954,-0.1909,-0.1956,-0.1933,-0.1881,-0.1755,-0.1726,-0.1618,-0.154,-0.1509,-0.1513,-0.1529,-0.1502,-0.1617,-0.1601,-0.1379,-0.1379,-0.1379,-0.1379,-0.1379,-0.1379,-0.1913,-0.1866,-0.1868,-0.1766,-0.1757,-0.1663,-0.1633,-0.1596,-0.1599,-0.1547,-0.1547,-0.1586,-0.158,-0.1644,-0.1512,-0.1428,-0.1405,-0.1355,-0.1406,-0.1494,-0.152,-0.1544,-0.1535,-0.1302,-0.1302,-0.1212,-0.1211,-0.1211]},{"header":{"parameterUnit":"m.s-1","parameterCategory":2,"la1":30.2991,"la2":30.254,"lo1":-89.0895,"lo2":-89.0444,"dy":0.0017,"dx":0.0017,"nx":28,"ny":28,"refTime":"2025-01-25T09:00:00:Z","depth":"0","parameterNumber":3,"parameterNumberName":"V-component_of_CURRENTS"},"data":[0,0,0,0,0,0,0,0,0,0,0,0,0,0,0,0,0,0,0,0,0,0,0,0,0,0,0,0,0,0,0,0,0,0,0,0,0,0,0,0,0,0,0,0,0,0,0,0,0,0,0,0,0,0,0,0,0,0,-0.003,-0.0028,0,0.0094,0.0096,0.0097,0.0194,0.0195,0.0196,0.0197,0.0373,0.0376,0.038,0,0,0,0,0,0,0,0,0,0,0,0,0,-0.017,-0.0168,-0.003,-0.0028,-0.0027,0.0094,0.0096,0.0098,0.0194,0.0195,0.0196,0.0197,0.0371,0.0376,0.038,0,0,0,0,0,0,0,0,0,0,0,0,0,-0.0083,-0.0167,-0.003,0.0035,0.0042,0.0094,0.0096,0.0098,0.0194,0.0195,0.0197,0.0198,0.037,0.0375,0.0381,0.0391,0,0,0.0399,0.0401,0,0,0,0,0,0,0,0,-0.0088,-0.0078,0.0024,0.0031,0.0039,0.0129,0.0111,0.0198,0.0194,0.0137,0.0197,0.0198,0.0294,0.0306,0.0328,0.0399,0.0407,0.0399,0.0403,0.0405,0.0407,0,0,0,0,0,0,0,-0.0094,-0.0083,0.002,0.0026,0.0034,0.0063,0.0076,0.0128,0.0209,0.0142,0.0149,0.0161,0.0299,0.0322,0.0333,0.041,0.0399,0.0404,0.0408,0.041,0.0523,0.0523,0,0,0,0,0,0,-0.0113,-0.0088,0.0016,0.0024,-0.0024,0.0064,0.0079,0.01,0.0207,0.0224,0.016,0.0165,0.0311,0.0326,0.0339,0.0363,0.0405,0.0411,0.0414,0.0524,0.0523,0.0523,0,0,0,0,0,0,-0.0117,-0.0105,0.0011,-0.0031,-0.0014,0.0065,0.0087,0.0101,0.0124,0.022,0.0239,0.0168,0.0313,0.0331,0.0379,0.037,0.0413,0.0419,0.0524,0.0524,0.0523,0.0407,0,0,0,0,0,0,-0.0121,-0.0107,-0.0103,-0.0032,-0.0012,0.0029,0.0086,0.0103,0.0129,0.0137,0.0233,0.0251,0.0315,0.037,0.0385,0.0379,0.0423,0.0525,0.0524,0.0523,0.0412,0.0403,0.0395,0,0,0,0,0,-0.0126,-0.0132,-0.0103,-0.0091,-0.0008,0.0028,0.004,0.0101,0.0128,0.0128,0.0194,0.0248,0.0375,0.0374,0.0392,0.0387,0.0525,0.0524,0.0523,0.0415,0.0404,0.0395,0,0,0,0,0,0,-0.0193,-0.0121,-0.0088,-0.0071,-0.0029,0.0044,0.0047,0.0088,0.014,0.0148,0.0239,0.0261,0.03,0.0356,0.0352,0.0418,0.046,0.0462,0.0372,0.0362,0.0354,0.0341,0.0428,0,0,0,0,0,-0.0207,-0.0192,-0.0121,-0.0113,-0.0096,-0.0028,-0.0007,0.0033,0.009,0.0114,0.0182,0.0253,0.0309,0.0344,0.0401,0.0433,0.0472,0.0443,0.0435,0.0427,0.0429,0.0454,0.0448,0.0519,0.0519,0.0519,0,0,-0.0233,-0.0192,-0.0184,-0.0127,-0.009,-0.0078,-0.0013,0.0008,0.0024,0.0124,0.0159,0.0222,0.0309,0.0348,0.0371,0.0395,0.0427,0.0426,0.0418,0.0425,0.0453,0.0446,0.0439,0.0518,0.0518,0.0519,0,0,-0.029,-0.0242,-0.0252,-0.0222,-0.0174,-0.0127,-0.0128,-0.0059,-0.0023,0.0016,0.0091,0.0145,0.0232,0.0294,0.0336,0.0315,0.0377,0.0333,0.0287,0.0311,0.0305,0.03,0.0333,0.0332,0.0334,0.0334,0.0333,0,-0.0325,-0.0313,-0.0254,-0.0256,-0.0237,-0.0158,-0.0166,-0.0122,-0.0046,-0.0022,0.0012,0.0135,0.0209,0.0261,0.0263,0.0296,0.032,0.0314,0.0297,0.0294,0.0291,0.0326,0.0327,0.0328,0.0329,0.0329,0.033,0,-0.0382,-0.0373,-0.0382,-0.0349,-0.0327,-0.0323,-0.0253,-0.0227,-0.0173,-0.0118,-0.006,0.0037,0.0114,0.0143,0.0205,0.0224,0.025,0.0275,0.0316,0.0276,0.0317,0.0319,0.032,0.0322,0.0324,0.0325,0,0,-0.045,-0.0427,-0.0427,-0.0426,-0.0372,-0.0358,-0.0341,-0.0292,-0.0274,-0.0199,-0.017,-0.0068,-0.001,0.0042,0.0119,0.0154,0.0161,0.0203,0.0207,0.0223,0.0213,0.0272,0.0281,0.0173,0.0173,0.0173,0.0247,0,-0.0508,-0.0539,-0.0503,-0.0523,-0.0528,-0.0458,-0.0444,-0.0392,-0.0328,-0.0281,-0.0183,-0.0123,-0.005,-0.001,0.003,0.0136,0.0164,0.0139,0.0262,0.0266,0.0312,0.0285,0.0324,0.0397,0.025,0.025,0.0251,0,-0.0563,-0.0574,-0.0611,-0.0595,-0.059,-0.0588,-0.0543,-0.0519,-0.0437,-0.0387,-0.032,-0.0234,-0.015,-0.0092,0.004,0.0016,0.0102,0.0177,0.0182,0.0282,0.033,0.0417,0.0408,0.0552,0.0256,0.0255,0.0255,0,-0.0627,-0.064,-0.0671,-0.0666,-0.0642,-0.0643,-0.0622,-0.0555,-0.0531,-0.0452,-0.0421,-0.032,-0.0252,-0.0152,0.0026,0.0022,0.0168,0.0182,0.031,0.0316,0.04,0.0413,0.0538,0.0252,0.0252,0.0252,0.0251,0,-0.0686,-0.0707,-0.0705,-0.0722,-0.0752,-0.0708,-0.0716,-0.0676,-0.0618,-0.0591,-0.0481,-0.0429,-0.0266,-0.0147,-0.0011,0.017,0.0138,0.0302,0.0337,0.0362,0.037,0.0543,0.0601,0.0254,0.0254,0.0253,0.0253,0,-0.0745,-0.0743,-0.078,-0.0782,-0.0784,-0.0803,-0.0785,-0.0783,-0.0718,-0.068,-0.0658,-0.0513,-0.0351,-0.0173,0.0017,0.0135,0.0393,0.0365,0.0394,0.0431,0.0668,0.0717,0.0888,0.097,0.0497,0.0499,0.0501,0,-0.0776,-0.0803,-0.0836,-0.0863,-0.0867,-0.0885,-0.0895,-0.0842,-0.0831,-0.072,-0.0706,-0.0542,-0.0401,-0.0095,0.014,0.0376,0.0489,0.0543,0.0546,0.0691,0.0771,0.0806,0.0864,0.061,0.0613,0.0615,0.0616,0,-0.0833,-0.0845,-0.0876,-0.0941,-0.0969,-0.0994,-0.0998,-0.1004,-0.0927,-0.0864,-0.0747,-0.0623,-0.0309,-0.001,0.0303,0.045,0.0655,0.0589,0.0731,0.0865,0.092,0.1013,0.0557,0.0633,0.0631,0.063,0.0629,0.0629,-0.0866,-0.0909,-0.0954,-0.1009,-0.1049,-0.1083,-0.1092,-0.1067,-0.1024,-0.0891,-0.0779,-0.0534,-0.0129,0.0328,0.0495,0.0856,0.0815,0.0961,0.1006,0.1026,0.1116,0.0704,0.0824,0.0824,0.0823,0.0823,0.0822,0,-0.0903,-0.095,-0.1016,-0.1079,-0.1129,-0.113,-0.1141,-0.1106,-0.1036,-0.0866,-0.0702,-0.0217,0.0195,0.0575,0.106,0.126,0.1298,0.1358,0.1415,0.1452,0.1087,0.1103,0.13,0.13,0.13,0.13,0.13,0.13,-0.0922,-0.0993,-0.1031,-0.1124,-0.1166,-0.1192,-0.1188,-0.1102,-0.0967,-0.0648,-0.0345,-0.0099,0.0424,0.1152,0.16,0.1645,0.1808,0.1801,0.1881,0.163,0.1596,0.1564,0.1594,0.1891,0.1892,0.2237,0.2241,0.2243]}],[{"header":{"parameterUnit":"m.s-1","parameterCategory":2,"la1":30.2991,"la2":30.254,"lo1":-89.0895,"lo2":-89.0444,"dy":0.0017,"dx":0.0017,"nx":28,"ny":28,"refTime":"2025-01-25T09:00:00:Z","depth":"2","parameterNumber":2,"parameterNumberName":"U-component_of_CURRENTS"},"data":[0,0,0,0,0,0,0,0,0,0,0,0,0,0,0,0,0,0,0,0,0,0,0,0,0,0,0,0,0,0,0,0,0,0,0,0,0,0,0,0,0,0,0,0,0,0,0,0,0,0,0,0,0,0,0,0,0,0,-0.2205,-0.2205,0,-0.2275,-0.2275,-0.2276,-0.2278,-0.2278,-0.2277,-0.2277,-0.2307,-0.2308,-0.2309,0,0,0,0,0,0,0,0,0,0,0,0,0,-0.2176,-0.2176,-0.2204,-0.2206,-0.2207,-0.2275,-0.2276,-0.2276,-0.2279,-0.2278,-0.2277,-0.2276,-0.2306,-0.2308,-0.2309,0,0,0,0,0,0,0,0,0,0,0,0,0,-0.221,-0.2176,-0.2204,-0.2218,-0.222,-0.2275,-0.2276,-0.2276,-0.2279,-0.2278,-0.2277,-0.2276,-0.2306,-0.2308,-0.231,-0.2343,0,0,-0.2316,-0.2317,0,0,0,0,0,0,0,0,-0.2208,-0.221,-0.2215,-0.2217,-0.2219,-0.2269,-0.2277,-0.2297,-0.2279,-0.2254,-0.2277,-0.2275,-0.2292,-0.2295,-0.2308,-0.2344,-0.2345,-0.2316,-0.2318,-0.2319,-0.2319,0,0,0,0,0,0,0,-0.2205,-0.2208,-0.223,-0.2216,-0.2219,-0.2256,-0.2258,-0.2281,-0.2275,-0.2256,-0.2257,-0.2269,-0.2293,-0.2306,-0.2309,-0.2346,-0.2316,-0.2318,-0.2319,-0.232,-0.2429,-0.2431,0,0,0,0,0,0,-0.2196,-0.2205,-0.2228,-0.2233,-0.2213,-0.2257,-0.226,-0.2252,-0.2276,-0.228,-0.2269,-0.2268,-0.2303,-0.2307,-0.231,-0.2349,-0.2319,-0.2321,-0.2322,-0.2428,-0.243,-0.2431,0,0,0,0,0,0,-0.2195,-0.2197,-0.2225,-0.2224,-0.223,-0.2258,-0.225,-0.2254,-0.2272,-0.2287,-0.2289,-0.2283,-0.2303,-0.2307,-0.2344,-0.235,-0.2321,-0.2323,-0.2426,-0.2428,-0.2431,-0.2427,0,0,0,0,0,0,-0.2194,-0.2195,-0.2188,-0.2222,-0.223,-0.226,-0.2251,-0.2256,-0.2281,-0.228,-0.23,-0.2301,-0.2302,-0.2341,-0.2346,-0.2352,-0.2325,-0.2424,-0.2427,-0.243,-0.2425,-0.2429,-0.2432,0,0,0,0,0,-0.2192,-0.22,-0.2187,-0.219,-0.2217,-0.2261,-0.2269,-0.2285,-0.2283,-0.2296,-0.2314,-0.2301,-0.2363,-0.2344,-0.235,-0.2356,-0.2422,-0.2426,-0.243,-0.2423,-0.2428,-0.2432,0,0,0,0,0,0,-0.2192,-0.2202,-0.2188,-0.2198,-0.2223,-0.2262,-0.2284,-0.2292,-0.2319,-0.2321,-0.2325,-0.2329,-0.2364,-0.2372,-0.235,-0.2401,-0.239,-0.2395,-0.2383,-0.2388,-0.2391,-0.2375,-0.2327,0,0,0,0,0,-0.2184,-0.2187,-0.2206,-0.2215,-0.2227,-0.2253,-0.2274,-0.2287,-0.2316,-0.2327,-0.2342,-0.2363,-0.2385,-0.2394,-0.242,-0.2449,-0.2428,-0.2459,-0.2462,-0.2465,-0.2459,-0.2434,-0.2433,-0.2443,-0.2443,-0.2443,0,0,-0.2188,-0.2195,-0.2197,-0.2215,-0.2235,-0.2262,-0.2263,-0.2303,-0.2323,-0.2327,-0.2363,-0.2381,-0.24,-0.2431,-0.2446,-0.2434,-0.2455,-0.247,-0.2472,-0.2463,-0.2437,-0.2436,-0.2434,-0.2446,-0.2445,-0.2445,0,0,-0.2209,-0.2202,-0.221,-0.2233,-0.2265,-0.2283,-0.2294,-0.2334,-0.2346,-0.239,-0.2393,-0.2411,-0.2459,-0.2458,-0.2467,-0.2509,-0.248,-0.2526,-0.2521,-0.2497,-0.2495,-0.2492,-0.2466,-0.2462,-0.252,-0.252,-0.252,0,-0.2206,-0.2212,-0.2226,-0.2248,-0.2265,-0.2291,-0.2312,-0.234,-0.2387,-0.2393,-0.2404,-0.2454,-0.2467,-0.2479,-0.2495,-0.2512,-0.2496,-0.2496,-0.2497,-0.2494,-0.2492,-0.2466,-0.2461,-0.2521,-0.2521,-0.2521,-0.2521,0,-0.2231,-0.2239,-0.2257,-0.2275,-0.2303,-0.2332,-0.2365,-0.2391,-0.2411,-0.2428,-0.2457,-0.2477,-0.2495,-0.2508,-0.2516,-0.251,-0.2504,-0.2505,-0.2474,-0.249,-0.2463,-0.2457,-0.2521,-0.2521,-0.2521,-0.2521,0,0,-0.2191,-0.2254,-0.2254,-0.2264,-0.2314,-0.2337,-0.2379,-0.2405,-0.2417,-0.2458,-0.2465,-0.2502,-0.25,-0.251,-0.2514,-0.2497,-0.2469,-0.2495,-0.2494,-0.2448,-0.2413,-0.2355,-0.2343,-0.2466,-0.2465,-0.2464,-0.24,0,-0.2189,-0.2226,-0.2262,-0.2296,-0.2313,-0.2353,-0.2385,-0.2419,-0.2446,-0.2465,-0.2474,-0.2492,-0.2505,-0.2507,-0.2494,-0.2485,-0.2455,-0.2486,-0.2424,-0.2422,-0.2349,-0.2335,-0.2166,-0.209,-0.2394,-0.2393,-0.2393,0,-0.2173,-0.2202,-0.2233,-0.2286,-0.2296,-0.2325,-0.2358,-0.2394,-0.2431,-0.2453,-0.2467,-0.2481,-0.2475,-0.2479,-0.2446,-0.2467,-0.2436,-0.2421,-0.2418,-0.2357,-0.2352,-0.2126,-0.2068,-0.2383,-0.2384,-0.2385,-0.2385,0,-0.2108,-0.2169,-0.2187,-0.2207,-0.2281,-0.2296,-0.233,-0.2378,-0.2402,-0.2432,-0.2448,-0.2452,-0.2452,-0.2425,-0.2412,-0.2423,-0.2366,-0.2372,-0.2284,-0.228,-0.212,-0.2103,-0.2321,-0.2321,-0.2322,-0.2322,-0.2322,0,-0.2071,-0.2082,-0.2158,-0.2168,-0.2188,-0.2254,-0.2275,-0.2314,-0.2364,-0.238,-0.2425,-0.2429,-0.2439,-0.242,-0.2397,-0.2324,-0.2347,-0.227,-0.2253,-0.2117,-0.2101,-0.2348,-0.2352,-0.2319,-0.232,-0.232,-0.2321,0,-0.1991,-0.2044,-0.2067,-0.214,-0.2159,-0.2169,-0.2242,-0.2256,-0.2319,-0.234,-0.2349,-0.2401,-0.2374,-0.237,-0.2325,-0.2292,-0.2236,-0.2199,-0.2043,-0.2008,-0.2169,-0.2174,-0.2083,-0.208,-0.2078,-0.2076,-0.2074,0,-0.1952,-0.1956,-0.2026,-0.2036,-0.2066,-0.2102,-0.2124,-0.2212,-0.2235,-0.2313,-0.231,-0.2317,-0.2286,-0.2217,-0.2154,-0.2075,-0.2155,-0.1886,-0.1872,-0.2148,-0.2141,-0.215,-0.2158,-0.1659,-0.1654,-0.165,-0.1647,0,-0.1869,-0.1895,-0.1917,-0.1943,-0.1966,-0.1995,-0.2039,-0.2055,-0.2151,-0.2171,-0.2183,-0.2165,-0.2119,-0.1966,-0.1893,-0.1832,-0.189,-0.1802,-0.2103,-0.1759,-0.1746,-0.1741,-0.1763,-0.1611,-0.1615,-0.1618,-0.162,-0.1621,-0.1792,-0.1786,-0.1815,-0.1825,-0.1853,-0.186,-0.184,-0.1897,-0.1908,-0.1907,-0.1988,-0.1904,-0.1893,-0.168,-0.159,-0.1524,-0.1655,-0.1581,-0.1593,-0.161,-0.1586,-0.1571,-0.1398,-0.14,-0.1402,-0.1404,-0.1406,0,-0.1683,-0.1687,-0.1693,-0.1702,-0.1678,-0.1737,-0.1753,-0.1709,-0.1668,-0.1692,-0.1669,-0.1488,-0.1383,-0.1377,-0.1214,-0.1187,-0.1177,-0.1139,-0.1126,-0.1162,-0.1194,-0.1149,-0.0845,-0.0843,-0.0842,-0.084,0,0,-0.1626,-0.1587,-0.159,-0.1513,-0.1515,-0.1438,-0.1414,-0.1371,-0.1354,-0.1266,-0.1219,-0.1306,-0.1332,-0.1093,-0.1035,-0.0912,-0.1026,-0.0862,-0.131,-0.1329,-0.1359,-0.1443,-0.1414,0,0,0,0,0]},{"header":{"parameterUnit":"m.s-1","parameterCategory":2,"la1":30.2991,"la2":30.254,"lo1":-89.0895,"lo2":-89.0444,"dy":0.0017,"dx":0.0017,"nx":28,"ny":28,"refTime":"2025-01-25T09:00:00:Z","depth":"2","parameterNumber":3,"parameterNumberName":"V-component_of_CURRENTS"},"data":[0,0,0,0,0,0,0,0,0,0,0,0,0,0,0,0,0,0,0,0,0,0,0,0,0,0,0,0,0,0,0,0,0,0,0,0,0,0,0,0,0,0,0,0,0,0,0,0,0,0,0,0,0,0,0,0,0,0,-0.0359,-0.0358,0,-0.0293,-0.0292,-0.0291,-0.0234,-0.0234,-0.0233,-0.0233,-0.0103,-0.01,-0.0097,0,0,0,0,0,0,0,0,0,0,0,0,0,-0.0368,-0.0369,-0.0359,-0.0358,-0.0358,-0.0293,-0.0292,-0.029,-0.0234,-0.0234,-0.0233,-0.0233,-0.0104,-0.0101,-0.0097,0,0,0,0,0,0,0,0,0,0,0,0,0,-0.0338,-0.0369,-0.0359,-0.0323,-0.032,-0.0293,-0.0292,-0.029,-0.0234,-0.0234,-0.0233,-0.0233,-0.0105,-0.0101,-0.0096,-0.0081,0,0,-0.0082,-0.008,0,0,0,0,0,0,0,0,-0.034,-0.0337,-0.0329,-0.0326,-0.0322,-0.0273,-0.0247,-0.0218,-0.0235,-0.0265,-0.0233,-0.0232,-0.0156,-0.0147,-0.0134,-0.0075,-0.0069,-0.0082,-0.0079,-0.0077,-0.0076,0,0,0,0,0,0,0,-0.0342,-0.0339,-0.033,-0.0329,-0.0324,-0.0287,-0.0283,-0.0241,-0.0212,-0.0262,-0.0258,-0.0254,-0.0153,-0.0139,-0.013,-0.0067,-0.0082,-0.0078,-0.0075,-0.0073,0.0029,0.0029,0,0,0,0,0,0,-0.0359,-0.0342,-0.0333,-0.0329,-0.0332,-0.0288,-0.0283,-0.0287,-0.0213,-0.0203,-0.0255,-0.0252,-0.0147,-0.0136,-0.0126,-0.0094,-0.0077,-0.0073,-0.007,0.0029,0.0029,0.0029,0,0,0,0,0,0,-0.0359,-0.0359,-0.0335,-0.0335,-0.0329,-0.029,-0.0295,-0.0287,-0.027,-0.0209,-0.0197,-0.0247,-0.0146,-0.0132,-0.0088,-0.0089,-0.0071,-0.0067,0.0029,0.0029,0.0029,-0.0037,0,0,0,0,0,0,-0.036,-0.036,-0.0367,-0.0336,-0.033,-0.0325,-0.0295,-0.0286,-0.027,-0.0265,-0.0198,-0.0186,-0.0144,-0.0095,-0.0083,-0.0082,-0.0063,0.0029,0.0029,0.0029,-0.0035,-0.0039,-0.0043,0,0,0,0,0,-0.0361,-0.0375,-0.0368,-0.0367,-0.0343,-0.0326,-0.0319,-0.0286,-0.027,-0.0267,-0.022,-0.0188,-0.0087,-0.0091,-0.0077,-0.0075,0.0029,0.0029,0.0029,-0.0033,-0.0038,-0.0043,0,0,0,0,0,0,-0.038,-0.037,-0.0362,-0.0371,-0.0354,-0.0317,-0.0311,-0.0291,-0.0252,-0.0244,-0.0186,-0.017,-0.0133,-0.0095,-0.0102,-0.0046,-0.0024,-0.0022,-0.0076,-0.008,-0.0085,-0.0087,-0.0059,0,0,0,0,0,-0.0391,-0.0399,-0.038,-0.0386,-0.0381,-0.0348,-0.0336,-0.0316,-0.028,-0.0262,-0.0216,-0.0166,-0.0123,-0.0096,-0.0054,-0.0022,0.0018,-0.0012,-0.0016,-0.002,-0.0012,0.0041,0.0042,0.0029,0.0029,0.0029,0,0,-0.04,-0.0395,-0.0399,-0.0391,-0.0373,-0.0371,-0.0339,-0.0326,-0.0316,-0.0254,-0.0222,-0.0179,-0.0119,-0.0084,-0.0064,-0.0051,0.0003,-0.002,-0.0024,-0.0014,0.0041,0.0042,0.0043,0.0029,0.0029,0.0029,0,0,-0.0424,-0.0419,-0.0434,-0.0424,-0.0408,-0.0387,-0.0388,-0.0355,-0.0331,-0.0301,-0.0254,-0.021,-0.0148,-0.0103,-0.0073,-0.0073,-0.0024,-0.0065,-0.0083,-0.0032,-0.0031,-0.0029,0.001,0.0016,-0.0064,-0.0064,-0.0064,0,-0.0437,-0.0454,-0.0434,-0.0443,-0.0437,-0.04,-0.0409,-0.0381,-0.0335,-0.0314,-0.0298,-0.0202,-0.0154,-0.0103,-0.0103,-0.0082,-0.005,-0.0072,-0.0038,-0.0035,-0.0032,0.0008,0.0015,-0.0067,-0.0067,-0.0067,-0.0066,0,-0.0472,-0.0481,-0.0487,-0.0489,-0.0478,-0.0479,-0.0445,-0.0425,-0.0394,-0.0359,-0.0306,-0.024,-0.0182,-0.0164,-0.0131,-0.0087,-0.0072,-0.0055,-0.0029,-0.0035,0.0008,0.0017,-0.0072,-0.0071,-0.007,-0.0069,0,0,-0.0515,-0.0515,-0.0518,-0.0526,-0.0503,-0.05,-0.048,-0.045,-0.0434,-0.038,-0.0348,-0.0274,-0.0235,-0.0198,-0.0151,-0.0103,-0.006,-0.0074,-0.007,-0.0041,0.0044,0.0072,0.0085,-0.004,-0.0038,-0.0037,0.006,0,-0.055,-0.0584,-0.0566,-0.0585,-0.0598,-0.0555,-0.0541,-0.0503,-0.0458,-0.0417,-0.0338,-0.0292,-0.0249,-0.0224,-0.0169,-0.0087,-0.0037,-0.0088,0.0052,0.0056,0.0077,0.0096,0.0075,0.0162,0.0069,0.0071,0.0072,0,-0.0594,-0.061,-0.0642,-0.0637,-0.0638,-0.0638,-0.0606,-0.0586,-0.0512,-0.0474,-0.0408,-0.0345,-0.0263,-0.0231,-0.0088,-0.0125,-0.0044,0.0021,0.0026,0.0086,0.0102,0.0158,0.0182,0.0087,0.0086,0.0085,0.0084,0,-0.0645,-0.0661,-0.0689,-0.069,-0.0679,-0.0677,-0.0663,-0.0606,-0.0586,-0.0509,-0.0481,-0.0376,-0.0322,-0.0208,-0.0069,-0.0079,0.009,0.0093,0.0196,0.0199,0.0228,0.0231,0.02,0.02,0.0199,0.0199,0.0199,0,-0.0694,-0.0715,-0.0718,-0.0736,-0.0762,-0.0729,-0.0734,-0.07,-0.0645,-0.0618,-0.0518,-0.0468,-0.0313,-0.0196,-0.0076,0.0093,0.0089,0.0205,0.0233,0.0203,0.0202,0.0177,0.0173,0.0203,0.0202,0.0201,0.0201,0,-0.0744,-0.0746,-0.0782,-0.0787,-0.0791,-0.0809,-0.0795,-0.0792,-0.073,-0.0691,-0.0669,-0.0532,-0.0376,-0.0212,-0.0018,0.0084,0.024,0.0301,0.0252,0.0273,0.0312,0.0304,0.0419,0.0421,0.0423,0.0424,0.0425,0,-0.0773,-0.0798,-0.0832,-0.0859,-0.0865,-0.0883,-0.0893,-0.0845,-0.0832,-0.0724,-0.0707,-0.055,-0.0422,-0.0129,0.0078,0.0298,0.0297,0.0402,0.0386,0.0323,0.0339,0.0327,0.0317,0.0394,0.0394,0.0395,0.0396,0,-0.0824,-0.0836,-0.0866,-0.0928,-0.0956,-0.0979,-0.0984,-0.0987,-0.0915,-0.0853,-0.074,-0.0626,-0.0342,-0.0095,0.0186,0.0312,0.0362,0.0422,0.039,0.0337,0.0306,0.0319,0.0308,0.0401,0.0401,0.04,0.04,0.04,-0.0854,-0.0893,-0.0937,-0.0991,-0.1028,-0.106,-0.107,-0.1043,-0.1002,-0.088,-0.0774,-0.0563,-0.0339,0.0073,0.0269,0.0451,0.044,0.0487,0.0482,0.0477,0.0453,0.0427,0.054,0.054,0.054,0.054,0.054,0,-0.0891,-0.0933,-0.0995,-0.1055,-0.1103,-0.1105,-0.1114,-0.1085,-0.102,-0.0872,-0.0724,-0.0447,-0.0163,0.0076,0.0368,0.0532,0.0514,0.0559,0.0498,0.0492,0.0486,0.0459,0.0549,0.055,0.055,0.0551,0,0,-0.091,-0.0976,-0.101,-0.1099,-0.114,-0.1169,-0.1167,-0.1091,-0.0977,-0.0812,-0.0639,-0.0425,-0.0142,0.0066,0.0269,0.0421,0.0415,0.0437,0.0413,0.0311,0.0304,0.0429,0.038,0,0,0,0,0]}],[{"header":{"parameterUnit":"m.s-1","parameterCategory":2,"la1":30.2991,"la2":30.254,"lo1":-89.0895,"lo2":-89.0444,"dy":0.0017,"dx":0.0017,"nx":28,"ny":28,"refTime":"2025-01-25T09:00:00:Z","depth":"4","parameterNumber":2,"parameterNumberName":"U-component_of_CURRENTS"},"data":[0,0,0,0,0,0,0,0,0,0,0,0,0,0,0,0,0,0,0,0,0,0,0,0,0,0,0,0,0,0,0,0,0,0,0,0,0,0,0,0,0,0,0,0,0,0,0,0,0,0,0,0,0,0,0,0,0,0,-0.1442,-0.1443,0,-0.1496,-0.1496,-0.1497,-0.1521,-0.1521,-0.1521,-0.1521,-0.1594,-0.1596,-0.1598,0,0,0,0,0,0,0,0,0,0,0,0,0,-0.1423,-0.1423,-0.1442,-0.1443,-0.1443,-0.1496,-0.1496,-0.1497,-0.1521,-0.1521,-0.1521,-0.1521,-0.1594,-0.1596,-0.1598,0,0,0,0,0,0,0,0,0,0,0,0,0,-0.145,-0.1423,-0.1442,-0.1461,-0.1464,-0.1495,-0.1496,-0.1497,-0.1521,-0.1521,-0.1521,-0.1521,-0.1593,-0.1596,-0.1599,-0.162,0,0,-0.1608,-0.1609,0,0,0,0,0,0,0,0,-0.1448,-0.145,-0.1458,-0.146,-0.1463,-0.1501,-0.1517,-0.1539,-0.1521,-0.1499,-0.1521,-0.1521,-0.1565,-0.157,-0.1581,-0.1623,-0.1626,-0.1608,-0.161,-0.1611,-0.1612,0,0,0,0,0,0,0,-0.1446,-0.1449,-0.1463,-0.1459,-0.1461,-0.1489,-0.1492,-0.1521,-0.1533,-0.1501,-0.1503,-0.1509,-0.1566,-0.1578,-0.1583,-0.1628,-0.1608,-0.1611,-0.1613,-0.1614,-0.1752,-0.1754,0,0,0,0,0,0,-0.1436,-0.1446,-0.1462,-0.1465,-0.1455,-0.1489,-0.1493,-0.1489,-0.1532,-0.1538,-0.1509,-0.151,-0.1572,-0.1579,-0.1585,-0.1661,-0.1611,-0.1614,-0.1616,-0.175,-0.1753,-0.1755,0,0,0,0,0,0,-0.1435,-0.1436,-0.146,-0.1458,-0.1462,-0.1489,-0.1485,-0.149,-0.1523,-0.1538,-0.1544,-0.1539,-0.1573,-0.1581,-0.1635,-0.1662,-0.1616,-0.1618,-0.1748,-0.1751,-0.1754,-0.1782,0,0,0,0,0,0,-0.1434,-0.1435,-0.1443,-0.1456,-0.1462,-0.1494,-0.1486,-0.1491,-0.1525,-0.1528,-0.1565,-0.157,-0.1573,-0.1631,-0.1638,-0.1666,-0.1621,-0.1746,-0.175,-0.1753,-0.1779,-0.1786,-0.1791,0,0,0,0,0,-0.1433,-0.1446,-0.1443,-0.1446,-0.1466,-0.1495,-0.1501,-0.152,-0.1527,-0.1548,-0.1577,-0.157,-0.1658,-0.1635,-0.1643,-0.1672,-0.1744,-0.1749,-0.1753,-0.1776,-0.1784,-0.1791,0,0,0,0,0,0,-0.1451,-0.145,-0.1447,-0.1461,-0.1481,-0.1499,-0.1527,-0.1536,-0.1575,-0.1587,-0.1596,-0.1604,-0.1659,-0.1669,-0.1643,-0.1724,-0.17,-0.1706,-0.1715,-0.1723,-0.1729,-0.173,-0.1623,0,0,0,0,0,-0.1454,-0.1461,-0.1467,-0.1484,-0.1494,-0.1514,-0.1534,-0.1547,-0.1576,-0.1594,-0.162,-0.1652,-0.168,-0.1704,-0.1731,-0.1781,-0.1769,-0.1806,-0.1812,-0.1817,-0.1826,-0.1831,-0.1837,-0.1768,-0.1768,-0.1768,0,0,-0.147,-0.1469,-0.1476,-0.1488,-0.1507,-0.1536,-0.1527,-0.1566,-0.1598,-0.1597,-0.1661,-0.1676,-0.1699,-0.1748,-0.1774,-0.1762,-0.183,-0.1822,-0.1826,-0.1832,-0.1835,-0.1842,-0.1847,-0.1771,-0.1771,-0.177,0,0,-0.1501,-0.1501,-0.1517,-0.1535,-0.1562,-0.1573,-0.1589,-0.1621,-0.1644,-0.1699,-0.1703,-0.1738,-0.1793,-0.1807,-0.182,-0.1882,-0.186,-0.1896,-0.1932,-0.1936,-0.1941,-0.1946,-0.1928,-0.1931,-0.1902,-0.1902,-0.1902,0,-0.152,-0.153,-0.1532,-0.1556,-0.1576,-0.1593,-0.1625,-0.1654,-0.1703,-0.1725,-0.1728,-0.1802,-0.1819,-0.1865,-0.1886,-0.1895,-0.1887,-0.1896,-0.1942,-0.1946,-0.195,-0.1931,-0.1933,-0.1904,-0.1903,-0.1903,-0.1903,0,-0.1552,-0.1574,-0.1592,-0.1616,-0.1645,-0.1678,-0.1707,-0.1748,-0.1776,-0.1796,-0.1854,-0.1875,-0.1914,-0.1926,-0.1927,-0.1969,-0.195,-0.1942,-0.1914,-0.1958,-0.1936,-0.1937,-0.1906,-0.1906,-0.1905,-0.1905,0,0,-0.1541,-0.1601,-0.1607,-0.1626,-0.1676,-0.1697,-0.1762,-0.1805,-0.1839,-0.1889,-0.1928,-0.1979,-0.1982,-0.1999,-0.2002,-0.2012,-0.2026,-0.1996,-0.1995,-0.1965,-0.2023,-0.1887,-0.1876,-0.2024,-0.2025,-0.2025,-0.1991,0,-0.1559,-0.1607,-0.1639,-0.1696,-0.1717,-0.1761,-0.1813,-0.1862,-0.1899,-0.1944,-0.1971,-0.2009,-0.2012,-0.2026,-0.2042,-0.2032,-0.2035,-0.2035,-0.1999,-0.1997,-0.186,-0.1875,-0.2028,-0.1992,-0.1992,-0.1992,-0.1993,0,-0.1555,-0.1589,-0.1647,-0.1713,-0.1729,-0.1776,-0.1842,-0.1891,-0.1958,-0.1989,-0.2035,-0.2049,-0.2087,-0.2072,-0.2084,-0.2085,-0.2063,-0.2048,-0.2046,-0.1912,-0.1865,-0.1945,-0.1996,-0.1995,-0.1995,-0.1995,-0.1995,0,-0.1501,-0.1582,-0.1626,-0.165,-0.1737,-0.1781,-0.1831,-0.1905,-0.1943,-0.2014,-0.204,-0.2086,-0.2104,-0.2102,-0.2083,-0.2087,-0.2072,-0.2066,-0.1923,-0.1912,-0.2031,-0.2027,-0.2067,-0.2067,-0.2067,-0.2067,-0.2067,0,-0.1467,-0.1503,-0.1609,-0.1628,-0.1685,-0.1757,-0.182,-0.1877,-0.1954,-0.1985,-0.2055,-0.207,-0.2114,-0.211,-0.2089,-0.2002,-0.2075,-0.1925,-0.1895,-0.2044,-0.2042,-0.2031,-0.2027,-0.2065,-0.2066,-0.2066,-0.2066,0,-0.1388,-0.146,-0.1513,-0.1621,-0.1658,-0.1695,-0.1806,-0.1839,-0.1929,-0.1971,-0.1994,-0.2064,-0.2049,-0.2062,-0.2047,-0.1985,-0.1929,-0.1879,-0.2026,-0.2006,-0.1765,-0.1764,-0.1711,-0.1706,-0.1701,-0.1698,-0.1695,0,-0.1347,-0.1368,-0.1489,-0.1522,-0.1576,-0.1652,-0.1696,-0.1809,-0.184,-0.1943,-0.1942,-0.1974,-0.1997,-0.1858,-0.1898,-0.1832,-0.1813,-0.1774,-0.1783,-0.1752,-0.1729,-0.1735,-0.1739,-0.1688,-0.1687,-0.1686,-0.1685,0,-0.1264,-0.1322,-0.1368,-0.1438,-0.1497,-0.1553,-0.1626,-0.1637,-0.1749,-0.1852,-0.1825,-0.1805,-0.1783,-0.1758,-0.1715,-0.1677,-0.1797,-0.1729,-0.1738,-0.1746,-0.1724,-0.1707,-0.1716,-0.167,-0.1672,-0.1673,-0.1674,0,-0.1202,-0.1214,-0.1283,-0.1328,-0.1399,-0.1419,-0.1481,-0.1509,-0.1554,-0.1672,-0.1657,-0.1692,-0.176,-0.1676,-0.1641,-0.1585,-0.1564,-0.1515,-0.1535,-0.1552,-0.1516,-0.1467,-0.1301,0,0,0,0,0,-0.113,-0.1129,-0.1165,-0.1211,-0.1276,-0.1314,-0.1413,-0.1477,-0.1589,-0.1521,-0.1583,-0.1552,-0.15,-0.1527,-0.1431,-0.157,-0.1572,-0.1454,-0.1529,-0.1587,-0.1604,-0.1577,0,0,0,0,0,0,-0.1082,-0.1111,-0.1121,-0.1096,-0.1102,-0.1159,-0.1213,-0.1297,-0.1271,-0.1387,-0.136,-0.145,-0.1417,-0.1515,-0.1393,-0.14,-0.1413,-0.1488,-0.1484,-0.1578,-0.1593,-0.1607,-0.1585,0,0,0,0,0]},{"header":{"parameterUnit":"m.s-1","parameterCategory":2,"la1":30.2991,"la2":30.254,"lo1":-89.0895,"lo2":-89.0444,"dy":0.0017,"dx":0.0017,"nx":28,"ny":28,"refTime":"2025-01-25T09:00:00:Z","depth":"4","parameterNumber":3,"parameterNumberName":"V-component_of_CURRENTS"},"data":[0,0,0,0,0,0,0,0,0,0,0,0,0,0,0,0,0,0,0,0,0,0,0,0,0,0,0,0,0,0,0,0,0,0,0,0,0,0,0,0,0,0,0,0,0,0,0,0,0,0,0,0,0,0,0,0,0,0,-0.0325,-0.0325,0,-0.0302,-0.0301,-0.0301,-0.0286,-0.0286,-0.0286,-0.0286,-0.0215,-0.0213,-0.0211,0,0,0,0,0,0,0,0,0,0,0,0,0,-0.0311,-0.0312,-0.0325,-0.0325,-0.0325,-0.0302,-0.0301,-0.0301,-0.0286,-0.0286,-0.0286,-0.0286,-0.0215,-0.0213,-0.0211,0,0,0,0,0,0,0,0,0,0,0,0,0,-0.0305,-0.0312,-0.0325,-0.0315,-0.0314,-0.0302,-0.0301,-0.0301,-0.0286,-0.0286,-0.0286,-0.0286,-0.0216,-0.0213,-0.0211,-0.0193,0,0,-0.0202,-0.0201,0,0,0,0,0,0,0,0,-0.0305,-0.0305,-0.0317,-0.0316,-0.0315,-0.0298,-0.0271,-0.0263,-0.0286,-0.0295,-0.0286,-0.0286,-0.0239,-0.0234,-0.0229,-0.019,-0.0187,-0.0202,-0.02,-0.0199,-0.0198,0,0,0,0,0,0,0,-0.0306,-0.0306,-0.0314,-0.0316,-0.0315,-0.0297,-0.0296,-0.0269,-0.0265,-0.0294,-0.0293,-0.0293,-0.0238,-0.0232,-0.0227,-0.0186,-0.0202,-0.0199,-0.0198,-0.0196,-0.0142,-0.0142,0,0,0,0,0,0,-0.0313,-0.0306,-0.0315,-0.0314,-0.0311,-0.0297,-0.0296,-0.0302,-0.0267,-0.0262,-0.0293,-0.0292,-0.0236,-0.023,-0.0224,-0.0213,-0.0199,-0.0196,-0.0195,-0.0142,-0.0142,-0.0142,0,0,0,0,0,0,-0.0313,-0.0315,-0.0316,-0.031,-0.0309,-0.0298,-0.0304,-0.0302,-0.03,-0.0266,-0.026,-0.0294,-0.0236,-0.0228,-0.0207,-0.0209,-0.0195,-0.0192,-0.0141,-0.0142,-0.0142,-0.0182,0,0,0,0,0,0,-0.0313,-0.0315,-0.0324,-0.0311,-0.031,-0.0317,-0.0304,-0.0301,-0.03,-0.0299,-0.0265,-0.0259,-0.0236,-0.0212,-0.0204,-0.0205,-0.019,-0.0141,-0.0142,-0.0142,-0.018,-0.0184,-0.0187,0,0,0,0,0,-0.0313,-0.0325,-0.0325,-0.0326,-0.0322,-0.0318,-0.0316,-0.0306,-0.03,-0.0304,-0.028,-0.026,-0.021,-0.021,-0.0201,-0.0201,-0.0141,-0.0141,-0.0142,-0.0179,-0.0183,-0.0187,0,0,0,0,0,0,-0.0323,-0.0324,-0.0324,-0.0336,-0.0332,-0.0316,-0.0318,-0.0311,-0.0295,-0.0293,-0.026,-0.0252,-0.0238,-0.0213,-0.0214,-0.0188,-0.0173,-0.0172,-0.0204,-0.0207,-0.021,-0.0208,-0.0188,0,0,0,0,0,-0.033,-0.0341,-0.0336,-0.0346,-0.0346,-0.0333,-0.0331,-0.0325,-0.0309,-0.0303,-0.028,-0.0254,-0.0232,-0.0216,-0.0196,-0.0176,-0.0136,-0.0171,-0.0174,-0.0177,-0.017,-0.0108,-0.0105,-0.0144,-0.0144,-0.0144,0,0,-0.0337,-0.0339,-0.0345,-0.0349,-0.0344,-0.0348,-0.0332,-0.0332,-0.0331,-0.0296,-0.0287,-0.0266,-0.0231,-0.0215,-0.0206,-0.0194,-0.0148,-0.0178,-0.018,-0.0171,-0.0109,-0.0104,-0.0101,-0.0145,-0.0144,-0.0144,0,0,-0.0353,-0.0357,-0.0372,-0.0371,-0.037,-0.0362,-0.0365,-0.0354,-0.0346,-0.0335,-0.0311,-0.0287,-0.0258,-0.023,-0.0212,-0.0216,-0.0171,-0.0217,-0.0222,-0.0163,-0.0159,-0.0155,-0.011,-0.0102,-0.0212,-0.0212,-0.0212,0,-0.0363,-0.0381,-0.0374,-0.0385,-0.0387,-0.0371,-0.0383,-0.0371,-0.0354,-0.0341,-0.0339,-0.0285,-0.0261,-0.0225,-0.0232,-0.0221,-0.0186,-0.0212,-0.0166,-0.0161,-0.0156,-0.0111,-0.0101,-0.0214,-0.0214,-0.0214,-0.0214,0,-0.0388,-0.0403,-0.041,-0.0421,-0.0419,-0.0427,-0.0412,-0.0407,-0.0395,-0.0376,-0.0345,-0.0309,-0.0274,-0.0267,-0.0251,-0.0208,-0.0195,-0.0182,-0.0155,-0.0154,-0.0107,-0.0096,-0.0217,-0.0216,-0.0216,-0.0215,0,0,-0.0413,-0.0427,-0.0432,-0.0444,-0.044,-0.0444,-0.0437,-0.0424,-0.0415,-0.0388,-0.0365,-0.0327,-0.0301,-0.0279,-0.0251,-0.0201,-0.0145,-0.0181,-0.0177,-0.0135,-0.0021,-0.0039,-0.0028,-0.0122,-0.012,-0.0119,-0.0007,0,-0.0438,-0.0471,-0.0465,-0.0491,-0.0506,-0.0486,-0.0482,-0.0462,-0.0437,-0.041,-0.0355,-0.0328,-0.0307,-0.0293,-0.0238,-0.0173,-0.0116,-0.0177,-0.003,-0.0026,-0.0039,-0.0016,-0.0113,0.0002,0.0004,0.0006,0.0007,0,-0.0467,-0.0486,-0.052,-0.0531,-0.0535,-0.0544,-0.0531,-0.0524,-0.0472,-0.0448,-0.0396,-0.0354,-0.0286,-0.0268,-0.0133,-0.0174,-0.0099,-0.0042,-0.0036,-0.0027,-0.0022,0.0004,0.0028,0.0027,0.0025,0.0024,0.0022,0,-0.0496,-0.0523,-0.0554,-0.056,-0.0568,-0.0575,-0.0574,-0.0538,-0.0529,-0.0469,-0.0448,-0.0358,-0.0316,-0.0207,-0.0098,-0.011,0.0057,0.0058,0.012,0.0119,0.0119,0.0114,0.0173,0.0172,0.0172,0.0172,0.0172,0,-0.0525,-0.0551,-0.0576,-0.0595,-0.0628,-0.0614,-0.0628,-0.0608,-0.057,-0.055,-0.0474,-0.043,-0.0297,-0.0191,-0.0089,0.0047,0.0071,0.013,0.0154,0.0096,0.0087,0.0127,0.012,0.0176,0.0175,0.0174,0.0174,0,-0.055,-0.0567,-0.0608,-0.0634,-0.0647,-0.0671,-0.0681,-0.0681,-0.0639,-0.0607,-0.059,-0.0476,-0.034,-0.0201,-0.0021,0.005,0.0185,0.0232,0.0157,0.0173,0.0206,0.0195,0.0311,0.0311,0.0312,0.0312,0.0312,0,-0.0564,-0.059,-0.0647,-0.068,-0.0699,-0.0731,-0.0749,-0.0724,-0.0714,-0.0631,-0.0611,-0.0481,-0.0392,-0.0142,-0.0007,0.0196,0.0221,0.0286,0.025,0.0212,0.0224,0.0213,0.0202,0.0313,0.0313,0.0313,0.0313,0,-0.0588,-0.0616,-0.0651,-0.0724,-0.0764,-0.0797,-0.0815,-0.0811,-0.0763,-0.0728,-0.0607,-0.0473,-0.0318,-0.014,0.0019,0.0162,0.0236,0.029,0.029,0.0257,0.0216,0.0225,0.0214,0.0315,0.0314,0.0314,0.0314,0,-0.0605,-0.0641,-0.0696,-0.0753,-0.0811,-0.0842,-0.0849,-0.0815,-0.0791,-0.0688,-0.0648,-0.0469,-0.0363,-0.0156,-0.0009,0.0126,0.0152,0.0185,0.0191,0.0191,0.0112,0.0039,0.0116,0,0,0,0,0,-0.0615,-0.0657,-0.072,-0.0782,-0.0839,-0.0867,-0.0879,-0.0869,-0.0823,-0.0739,-0.0687,-0.0533,-0.03,-0.0196,-0.0061,-0.0026,0.0153,0.0132,0.0188,0.0322,0.0321,0.0246,0,0,0,0,0,0,-0.0623,-0.0686,-0.0718,-0.0789,-0.0835,-0.0885,-0.0894,-0.0865,-0.0803,-0.0737,-0.0607,-0.0518,-0.0291,-0.0375,-0.0063,-0.0022,0.0027,0.0248,0.025,0.0323,0.0322,0.0321,0.0243,0,0,0,0,0]}]]